Home > Time Zones > World Clock > Weather > Italy > Genoa > Past weeks

Flag for Italy Weather past 2 weeks in Genoa, Italy

Now
59 °F

Passing clouds.


Feels Like: 56 °F
Forecast: 59 / 68 °F
Wind: 15 mph from Northeast

Location: Genova / Sestri

Current Time: Oct 25, 2014 at 10:13:15 AM

Latest Report: Oct 25, 2014 at 9:20 AM


Visibility: N/A

Pressure: 30.07 "Hg

Humidity: 51%

Dew point: 41 °F

Location of GenoaLocation

Historic Weather in Genoa — Graph

°F

Genoa temperature yesterday

Maximum temperature yesterday: 72 °F (at 12:20 PM)
Minimum temperature yesterday: 59 °F (at 11:50 PM)
Average temperature yesterday: 66 °F

Past Weeks' High & Low Weather Summary

 TemperatureHumidityPressure
High75 °F (Oct 11, 11:50 AM)100% (Oct 10, 2:50 PM)30.27 "Hg (Oct 10, 2:50 PM)
Low52 °F (Oct 23, 3:50 AM)16% (Oct 23, 2:20 PM)29.65 "Hg (Oct 21, 11:50 PM)
Average68 °F74%29.97 "Hg
* Reported Oct 10 8:20 AM — Oct 25 8:50 AM, Genoa, Weather by CustomWeather, © 2014

Note: Actual official high and low records may vary slightly from our data, if they occured in-between our weather recording intervals... More about our weather records

Advertising

Genoa weather history for previous 24 hours

 ConditionsComfort  
Time TempWeatherWind HumidityBarometerVisibility
8:50 AM
Oct 25
59 °FPassing clouds.13 mph51%30.07 "HgN/A
8:20 AM59 °FPassing clouds.9 mph51%30.07 "HgN/A
7:50 AM59 °FPassing clouds.9 mph51%30.04 "HgN/A
7:20 AM59 °FPassing clouds.9 mph51%30.04 "HgN/A
6:50 AM59 °FPassing clouds.9 mph51%30.01 "HgN/A
6:20 AM61 °FPassing clouds.8 mph52%30.01 "HgN/A
5:50 AM59 °FClear.7 mph55%30.01 "Hg10 mi
5:20 AM59 °FPassing clouds.7 mph59%30.01 "HgN/A
4:50 AM59 °FPassing clouds.7 mph59%30.01 "HgN/A
4:20 AM59 °FPassing clouds.9 mph59%30.01 "HgN/A
2:50 AM57 °FClear.8 mph72%30.01 "Hg10 mi
2:20 AM59 °FClear.7 mph68%30.01 "Hg10 mi
1:50 AM59 °FClear.7 mph68%30.01 "Hg10 mi
1:20 AM59 °FClear.8 mph68%30.01 "Hg10 mi
12:50 AM59 °FClear.8 mph72%30.01 "Hg10 mi
12:20 AM59 °FClear.8 mph72%29.98 "Hg10 mi
11:50 PM
Oct 24
59 °FClear.8 mph72%29.98 "Hg10 mi
11:20 PM61 °FClear.6 mph68%29.98 "Hg10 mi
10:50 PM61 °FClear.7 mph68%29.98 "Hg10 mi
10:20 PM61 °FClear.8 mph68%29.98 "Hg10 mi
9:50 PM61 °FClear.7 mph68%29.98 "Hg10 mi
9:20 PM61 °FClear.6 mph72%29.95 "Hg10 mi
8:50 PM61 °FClear.6 mph72%29.95 "Hg10 mi
8:20 PM63 °FClear.6 mph68%29.95 "Hg10 mi
7:50 PM63 °FPassing clouds.6 mph68%29.95 "HgN/A
7:20 PM64 °FSunny.6 mph64%29.92 "Hg10 mi
6:50 PM66 °FSunny.5 mph64%29.92 "Hg10 mi
6:20 PM68 °FSunny.3 mph53%29.92 "Hg10 mi
5:50 PM70 °FSunny.5 mph53%29.92 "Hg10 mi
5:20 PM72 °FSunny.2 mph47%29.92 "Hg10 mi
4:50 PM70 °FSunny.3 mph53%29.92 "Hg10 mi
4:20 PM70 °FSunny.6 mph50%29.92 "Hg10 mi
3:50 PM72 °FPassing clouds.3 mph53%29.92 "HgN/A
3:20 PM72 °FPassing clouds.3 mph53%29.92 "HgN/A
2:50 PM72 °FSunny.2 mph53%29.92 "Hg10 mi
2:20 PM72 °FPassing clouds.3 mph50%29.92 "HgN/A
1:50 PM72 °FSunny.3 mph50%29.92 "Hg10 mi
1:20 PM72 °FPassing clouds.3 mph44%29.92 "HgN/A
12:50 PM72 °FSunny.2 mph38%29.95 "Hg10 mi
12:20 PM72 °FSunny.2 mph41%29.95 "Hg10 mi
11:50 AM70 °FPassing clouds.3 mph43%29.95 "HgN/A
11:20 AM70 °FSunny.2 mph40%29.92 "Hg10 mi
10:50 AM70 °FPassing clouds.3 mph33%29.92 "HgN/A
10:20 AM70 °FPassing clouds.3 mph29%29.92 "HgN/A
Weather by CustomWeather, © 2014

See weather overviewHow to use our weather pages